Regional Weather Roundup
Issued by NWS Bismarck, ND

Home | Current Version | Previous Version | Text Only | Print | Product List | Glossary On
Versions: 1 2 3 4 5 6 7 8 9 10 11 12 13 14 15 16 17 18 19 20 21 22 23 24 25 26 27 28 29 30 31 32 33 34 35 36 37 38 39 40 41 42 43 44 45 46 47 48 49 50
000
ASUS43 KBIS 191720
RWRBIS

NWR BROADCAST TEXT
NATIONAL WEATHER SERVICE BISMARCK ND
1200 PM CDT FRI SEP 19 2014

NOTE: "FAIR" INDICATES FEW OR NO CLOUDS BELOW 12,000 FEET WITH NO
SIGNIFICANT WEATHER AND/OR OBSTRUCTIONS TO VISIBILITY.


CITY           SKY/WX    TMP DP  RH WIND       PRES   REMARKS
WILLISTON      MOSUNNY   77  47  34 W26G36    29.63S
MINOT          SUNNY     77  50  38 W14       29.57S
MINOT AFB      SUNNY     71  54  53 W9        29.56S
BISMARCK       MOSUNNY   77  58  51 W9G21     29.64S
DICKINSON      SUNNY     75  49  39 W20       29.71R
GARRISON         N/A     77  51  40 NW18G25   29.61S
HETTINGER ARPT SUNNY     76  53  44 W14       29.76R
JAMESTOWN      CLOUDY    75  63  66 W8        29.60R
BEACH            N/A     72  48  43 W17G25    29.77R
CARRINGTON     FAIR      75  63  64 W13G18    29.59R
CROSBY         FAIR      72  48  43 W18G25    29.61R
HARVEY         FAIR      77  55  47 W13       29.57S
HAZEN          FAIR      77  52  41 W15G23    29.64S
LINTON         FAIR      77  59  53 W14G21    29.66S
MANDAN         FAIR      75  57  53 W15G21    29.66S
OAKES            N/A     66  66 100 S14       29.63S
RUGBY          FAIR      73  57  56 W10       29.54S
STANLEY        FAIR      75  48  38 W18G31    29.61F
TIOGA          FAIR      73  46  38 W25G32    29.65S
WATFORD CITY   FAIR      77  46  33 W24G31    29.64S HAZE
$$

CITY           SKY/WX    TMP DP  RH WIND       PRES   REMARKS
GRAND FORKS    LGT RAIN  66  63  90 S7        29.57R
GRAND FORKS AF CLOUDY    66  66 100 SE7       29.53F
DEVILS LAKE    PTSUNNY   70  61  73 SW14      29.53R
FARGO          LGT RAIN  67  61  81 S15       29.60F
CANDO          FAIR      72  59  64 W13       29.54R
CAVALIER       FAIR      70  64  83 SW5       29.48S
GRAFTON        FAIR      64  64 100 S7        29.50F
GWINNER        PTSUNNY   70  64  83 SW16      29.63F
LANGDON        FAIR      72  59  64 SW7       29.51S
ROLLA          FAIR      72  55  56 W9        29.54S
WALHALLA         N/A     70  64  83 CALM      29.48F
$$

CITY           SKY/WX    TMP DP  RH WIND       PRES   REMARKS
ABERDEEN       CLOUDY    69  64  84 SW10G18   29.66S
MOBRIDGE       MOSUNNY   77  66  68 W3        29.65S
BUFFALO          N/A     74  51  44 W21       29.75S
RAPID CITY     CLOUDY    81  51  35 NW10      29.84R
GLASGOW        MOSUNNY   71  48  43 NW16      29.74R
SIDNEY         SUNNY    N/A N/A N/A W18G26    29.69F
WOLF POINT     SUNNY     74  50  42 W17G28    29.71R
GLENDIVE       MOSUNNY   73  48  40 W18G25    29.77R
MILES CITY     CLOUDY    71  49  45 W15       29.81R
BAKER          MOSUNNY   74  47  38 NW21G26   29.81R
$$

CITY           SKY/WX    TMP DP  RH WIND       PRES   REMARKS
BILLINGS       MOSUNNY   69  51  52 W12       29.91S
GREAT FALLS    CLOUDY    66  46  48 SW14      29.91R
REGINA         PTSUNNY   63  55  77 NW9       29.65R
ESTEVAN        MOSUNNY   70  52  52 W14G21    29.59R
$$



USA.gov is the U.S. government's official web portal to all federal, state and local government web resources and services.